owner,sensor,date,latitude,longitude,vertical_datum,wind_speed,wind_to_direction,wind_speed_of_gust,qcFlag 
TCOON,ioos:station:TCOON:518:1,2017-12-01T00:00:00Z,29.5150,-94.5133,0.0,2.8,356.0,3.5,'11111222,11111222,11111222' 
TCOON,ioos:station:TCOON:518:1,2017-12-01T00:06:00Z,29.5150,-94.5133,0.0,2.4,350.0,2.9,'11111222,11111222,11111222' 
TCOON,ioos:station:TCOON:518:1,2017-12-01T00:12:00Z,29.5150,-94.5133,0.0,2.5,4.0,3.0,'11111222,11111222,11111222' 
TCOON,ioos:station:TCOON:518:1,2017-12-01T00:18:00Z,29.5150,-94.5133,0.0,2.5,4.0,3.0,'1111122,1111122,1111122' 
TCOON,ioos:station:TCOON:518:1,2017-12-01T00:24:00Z,29.5150,-94.5133,0.0,2.5,3.0,2.8,'11111222,11111222,11111222' 
TCOON,ioos:station:TCOON:518:1,2017-12-01T00:30:00Z,29.5150,-94.5133,0.0,2.4,13.0,3.2,'11111222,11111222,11111222' 
TCOON,ioos:station:TCOON:518:1,2017-12-01T00:36:00Z,29.5150,-94.5133,0.0,2.3,15.0,2.6,'11111222,11111222,11111222' 
TCOON,ioos:station:TCOON:518:1,2017-12-01T00:42:00Z,29.5150,-94.5133,0.0,2.6,20.0,3.2,'11111222,11111222,11111222' 
TCOON,ioos:station:TCOON:518:1,2017-12-01T00:48:00Z,29.5150,-94.5133,0.0,3.2,17.0,3.8,'11111222,11111222,11111222' 
TCOON,ioos:station:TCOON:518:1,2017-12-01T00:54:00Z,29.5150,-94.5133,0.0,3.1,22.0,3.6,'11111222,11111222,11111222' 
TCOON,ioos:station:TCOON:518:1,2017-12-01T01:00:00Z,29.5150,-94.5133,0.0,2.9,19.0,3.4,'11111222,11111222,11111222' 
TCOON,ioos:station:TCOON:518:1,2017-12-01T01:06:00Z,29.5150,-94.5133,0.0,3.1,15.0,3.7,'11111222,11111222,11111222' 
TCOON,ioos:station:TCOON:518:1,2017-12-01T01:12:00Z,29.5150,-94.5133,0.0,2.8,23.0,3.6,'11111222,11111222,11111222' 
TCOON,ioos:station:TCOON:518:1,2017-12-01T01:18:00Z,29.5150,-94.5133,0.0,2.8,23.0,3.6,'1111122,1111122,1111122' 
TCOON,ioos:station:TCOON:518:1,2017-12-01T01:24:00Z,29.5150,-94.5133,0.0,2.1,6.0,2.6,'11111222,11111222,11111222' 
TCOON,ioos:station:TCOON:518:1,2017-12-01T01:30:00Z,29.5150,-94.5133,0.0,1.9,5.0,2.3,'11111222,11111222,11111222' 
TCOON,ioos:station:TCOON:518:1,2017-12-01T01:36:00Z,29.5150,-94.5133,0.0,2.2,358.0,2.7,'11111222,11111222,11111222' 
TCOON,ioos:station:TCOON:518:1,2017-12-01T01:42:00Z,29.5150,-94.5133,0.0,2.1,353.0,2.7,'11111222,11111222,11111222' 
TCOON,ioos:station:TCOON:518:1,2017-12-01T01:48:00Z,29.5150,-94.5133,0.0,2.4,347.0,2.7,'11111222,11111222,11111222' 
TCOON,ioos:station:TCOON:518:1,2017-12-01T01:54:00Z,29.5150,-94.5133,0.0,2.4,349.0,2.8,'11111222,11111222,11111222' 
TCOON,ioos:station:TCOON:518:1,2017-12-01T02:00:00Z,29.5150,-94.5133,0.0,2.3,346.0,3.1,'11111222,11111222,11111222' 
TCOON,ioos:station:TCOON:518:1,2017-12-01T02:06:00Z,29.5150,-94.5133,0.0,2.6,341.0,3.2,'11111222,11111222,11111222' 
TCOON,ioos:station:TCOON:518:1,2017-12-01T02:12:00Z,29.5150,-94.5133,0.0,2.7,350.0,3.3,'11111222,11111222,11111222' 
TCOON,ioos:station:TCOON:518:1,2017-12-01T02:18:00Z,29.5150,-94.5133,0.0,2.7,350.0,3.3,'1111122,1111122,1111122' 
TCOON,ioos:station:TCOON:518:1,2017-12-01T02:24:00Z,29.5150,-94.5133,0.0,3.5,341.0,4.1,'11111222,11111222,11111222' 
TCOON,ioos:station:TCOON:518:1,2017-12-01T02:30:00Z,29.5150,-94.5133,0.0,3.7,341.0,4.3,'11111222,11111222,11111222' 
TCOON,ioos:station:TCOON:518:1,2017-12-01T02:36:00Z,29.5150,-94.5133,0.0,3.8,352.0,4.4,'11111222,11111222,11111222' 
TCOON,ioos:station:TCOON:518:1,2017-12-01T02:42:00Z,29.5150,-94.5133,0.0,3.8,356.0,4.3,'11111222,11111222,11111222' 
TCOON,ioos:station:TCOON:518:1,2017-12-01T02:48:00Z,29.5150,-94.5133,0.0,4.1,356.0,4.8,'11111222,11111222,11111222' 
TCOON,ioos:station:TCOON:518:1,2017-12-01T02:54:00Z,29.5150,-94.5133,0.0,4.2,356.0,5.0,'11111222,11111222,11111222' 
TCOON,ioos:station:TCOON:518:1,2017-12-01T03:00:00Z,29.5150,-94.5133,0.0,4.1,2.0,5.2,'11111222,11111222,11111222' 
TCOON,ioos:station:TCOON:518:1,2017-12-01T03:06:00Z,29.5150,-94.5133,0.0,4.2,5.0,5.2,'11111222,11111222,11111222' 
TCOON,ioos:station:TCOON:518:1,2017-12-01T03:12:00Z,29.5150,-94.5133,0.0,4.2,3.0,5.0,'11111222,11111222,11111222' 
TCOON,ioos:station:TCOON:518:1,2017-12-01T03:18:00Z,29.5150,-94.5133,0.0,4.2,3.0,5.0,'1111122,1111122,1111122' 
TCOON,ioos:station:TCOON:518:1,2017-12-01T03:24:00Z,29.5150,-94.5133,0.0,4.3,6.0,5.0,'11111222,11111222,11111222' 
TCOON,ioos:station:TCOON:518:1,2017-12-01T03:30:00Z,29.5150,-94.5133,0.0,3.7,9.0,4.7,'11111222,11111222,11111222' 
TCOON,ioos:station:TCOON:518:1,2017-12-01T03:36:00Z,29.5150,-94.5133,0.0,4.1,8.0,5.0,'11111222,11111222,11111222' 
TCOON,ioos:station:TCOON:518:1,2017-12-01T03:42:00Z,29.5150,-94.5133,0.0,4.5,7.0,5.1,'11111222,11111222,11111222' 
TCOON,ioos:station:TCOON:518:1,2017-12-01T03:48:00Z,29.5150,-94.5133,0.0,4.3,6.0,5.3,'11111222,11111222,11111222' 
TCOON,ioos:station:TCOON:518:1,2017-12-01T03:54:00Z,29.5150,-94.5133,0.0,4.5,8.0,5.5,'11111222,11111222,11111222' 
TCOON,ioos:station:TCOON:518:1,2017-12-01T04:00:00Z,29.5150,-94.5133,0.0,4.3,11.0,5.5,'11111222,11111222,11111222' 
TCOON,ioos:station:TCOON:518:1,2017-12-01T04:06:00Z,29.5150,-94.5133,0.0,4.2,11.0,5.3,'11111222,11111222,11111222' 
TCOON,ioos:station:TCOON:518:1,2017-12-01T04:12:00Z,29.5150,-94.5133,0.0,3.9,11.0,5.0,'11111222,11111222,11111222' 
TCOON,ioos:station:TCOON:518:1,2017-12-01T04:18:00Z,29.5150,-94.5133,0.0,3.9,11.0,5.0,'1111122,1111122,1111122' 
TCOON,ioos:station:TCOON:518:1,2017-12-01T04:24:00Z,29.5150,-94.5133,0.0,4.3,12.0,5.6,'11111222,11111222,11111222' 
TCOON,ioos:station:TCOON:518:1,2017-12-01T04:30:00Z,29.5150,-94.5133,0.0,4.1,10.0,5.1,'11111222,11111222,11111222' 
TCOON,ioos:station:TCOON:518:1,2017-12-01T04:36:00Z,29.5150,-94.5133,0.0,4.0,11.0,5.1,'11111222,11111222,11111222' 
TCOON,ioos:station:TCOON:518:1,2017-12-01T04:42:00Z,29.5150,-94.5133,0.0,4.0,11.0,5.1,'11111222,11111222,11111222' 
TCOON,ioos:station:TCOON:518:1,2017-12-01T04:48:00Z,29.5150,-94.5133,0.0,4.0,12.0,5.0,'11111222,11111222,11111222' 
TCOON,ioos:station:TCOON:518:1,2017-12-01T04:54:00Z,29.5150,-94.5133,0.0,4.6,12.0,5.1,'11111222,11111222,11111222' 
TCOON,ioos:station:TCOON:518:1,2017-12-01T05:00:00Z,29.5150,-94.5133,0.0,4.2,15.0,4.8,'11111222,11111222,11111222' 
TCOON,ioos:station:TCOON:518:1,2017-12-01T05:06:00Z,29.5150,-94.5133,0.0,4.1,14.0,4.8,'11111222,11111222,11111222' 
TCOON,ioos:station:TCOON:518:1,2017-12-01T05:12:00Z,29.5150,-94.5133,0.0,4.1,11.0,4.7,'11111222,11111222,11111222' 
TCOON,ioos:station:TCOON:518:1,2017-12-01T05:18:00Z,29.5150,-94.5133,0.0,4.1,11.0,4.7,'1111122,1111122,1111122' 
TCOON,ioos:station:TCOON:518:1,2017-12-01T05:24:00Z,29.5150,-94.5133,0.0,4.0,15.0,4.5,'11111222,11111222,11111222' 
TCOON,ioos:station:TCOON:518:1,2017-12-01T05:30:00Z,29.5150,-94.5133,0.0,3.8,15.0,4.5,'11111222,11111222,11111222' 
TCOON,ioos:station:TCOON:518:1,2017-12-01T05:36:00Z,29.5150,-94.5133,0.0,3.6,13.0,4.2,'11111222,11111222,11111222' 
TCOON,ioos:station:TCOON:518:1,2017-12-01T05:42:00Z,29.5150,-94.5133,0.0,4.2,13.0,5.1,'11111222,11111222,11111222' 
TCOON,ioos:station:TCOON:518:1,2017-12-01T05:48:00Z,29.5150,-94.5133,0.0,4.2,17.0,5.0,'11111222,11111222,11111222' 
TCOON,ioos:station:TCOON:518:1,2017-12-01T05:54:00Z,29.5150,-94.5133,0.0,3.8,16.0,4.9,'11111222,11111222,11111222' 
TCOON,ioos:station:TCOON:518:1,2017-12-01T06:00:00Z,29.5150,-94.5133,0.0,4.0,17.0,4.7,'11111222,11111222,11111222' 
TCOON,ioos:station:TCOON:518:1,2017-12-01T06:06:00Z,29.5150,-94.5133,0.0,4.5,30.0,5.1,'11111222,11111222,11111222' 
TCOON,ioos:station:TCOON:518:1,2017-12-01T06:12:00Z,29.5150,-94.5133,0.0,4.6,31.0,5.3,'11111222,11111222,11111222' 
TCOON,ioos:station:TCOON:518:1,2017-12-01T06:18:00Z,29.5150,-94.5133,0.0,4.6,31.0,5.3,'1111122,1111122,1111122' 
TCOON,ioos:station:TCOON:518:1,2017-12-01T06:24:00Z,29.5150,-94.5133,0.0,4.4,24.0,5.0,'11111222,11111222,11111222' 
TCOON,ioos:station:TCOON:518:1,2017-12-01T06:30:00Z,29.5150,-94.5133,0.0,4.4,24.0,5.0,'11111222,11111222,11111222' 
TCOON,ioos:station:TCOON:518:1,2017-12-01T06:36:00Z,29.5150,-94.5133,0.0,4.1,25.0,4.8,'11111222,11111222,11111222' 
TCOON,ioos:station:TCOON:518:1,2017-12-01T06:42:00Z,29.5150,-94.5133,0.0,4.0,22.0,4.7,'11111222,11111222,11111222' 
TCOON,ioos:station:TCOON:518:1,2017-12-01T06:48:00Z,29.5150,-94.5133,0.0,3.8,24.0,4.5,'11111222,11111222,11111222' 
TCOON,ioos:station:TCOON:518:1,2017-12-01T06:54:00Z,29.5150,-94.5133,0.0,3.7,27.0,4.1,'11111222,11111222,11111222' 
TCOON,ioos:station:TCOON:518:1,2017-12-01T07:00:00Z,29.5150,-94.5133,0.0,3.8,26.0,4.1,'11111222,11111222,11111222' 
TCOON,ioos:station:TCOON:518:1,2017-12-01T07:06:00Z,29.5150,-94.5133,0.0,3.5,25.0,4.4,'11111222,11111222,11111222' 
TCOON,ioos:station:TCOON:518:1,2017-12-01T07:12:00Z,29.5150,-94.5133,0.0,3.3,28.0,3.8,'11111222,11111222,11111222' 
TCOON,ioos:station:TCOON:518:1,2017-12-01T07:18:00Z,29.5150,-94.5133,0.0,3.3,28.0,3.8,'1111122,1111122,1111122' 
TCOON,ioos:station:TCOON:518:1,2017-12-01T07:24:00Z,29.5150,-94.5133,0.0,3.1,21.0,3.5,'11111222,11111222,11111222' 
TCOON,ioos:station:TCOON:518:1,2017-12-01T07:30:00Z,29.5150,-94.5133,0.0,3.5,21.0,3.9,'11111222,11111222,11111222' 
TCOON,ioos:station:TCOON:518:1,2017-12-01T07:36:00Z,29.5150,-94.5133,0.0,3.1,18.0,3.9,'11111222,11111222,11111222' 
TCOON,ioos:station:TCOON:518:1,2017-12-01T07:42:00Z,29.5150,-94.5133,0.0,3.3,16.0,3.8,'11111222,11111222,11111222' 
TCOON,ioos:station:TCOON:518:1,2017-12-01T07:48:00Z,29.5150,-94.5133,0.0,3.4,15.0,3.8,'11111222,11111222,11111222' 
TCOON,ioos:station:TCOON:518:1,2017-12-01T07:54:00Z,29.5150,-94.5133,0.0,3.5,16.0,4.1,'11111222,11111222,11111222' 
TCOON,ioos:station:TCOON:518:1,2017-12-01T08:00:00Z,29.5150,-94.5133,0.0,3.7,19.0,4.1,'11111222,11111222,11111222' 
TCOON,ioos:station:TCOON:518:1,2017-12-01T08:06:00Z,29.5150,-94.5133,0.0,3.4,20.0,4.3,'11111222,11111222,11111222' 
TCOON,ioos:station:TCOON:518:1,2017-12-01T08:12:00Z,29.5150,-94.5133,0.0,3.5,25.0,4.3,'11111222,11111222,11111222' 
TCOON,ioos:station:TCOON:518:1,2017-12-01T08:18:00Z,29.5150,-94.5133,0.0,3.5,25.0,4.3,'1111122,1111122,1111122' 
TCOON,ioos:station:TCOON:518:1,2017-12-01T08:24:00Z,29.5150,-94.5133,0.0,3.7,25.0,4.0,'11111222,11111222,11111222' 
TCOON,ioos:station:TCOON:518:1,2017-12-01T08:30:00Z,29.5150,-94.5133,0.0,3.5,23.0,4.3,'11111222,11111222,11111222' 
TCOON,ioos:station:TCOON:518:1,2017-12-01T08:36:00Z,29.5150,-94.5133,0.0,3.6,26.0,4.0,'11111222,11111222,11111222' 
TCOON,ioos:station:TCOON:518:1,2017-12-01T08:42:00Z,29.5150,-94.5133,0.0,3.6,20.0,4.3,'11111222,11111222,11111222' 
TCOON,ioos:station:TCOON:518:1,2017-12-01T08:48:00Z,29.5150,-94.5133,0.0,3.6,22.0,4.4,'11111222,11111222,11111222' 
TCOON,ioos:station:TCOON:518:1,2017-12-01T08:54:00Z,29.5150,-94.5133,0.0,3.8,24.0,4.2,'11111222,11111222,11111222' 
TCOON,ioos:station:TCOON:518:1,2017-12-01T09:00:00Z,29.5150,-94.5133,0.0,3.5,26.0,4.3,'11111222,11111222,11111222' 
TCOON,ioos:station:TCOON:518:1,2017-12-01T09:06:00Z,29.5150,-94.5133,0.0,3.4,30.0,4.1,'11111222,11111222,11111222' 
TCOON,ioos:station:TCOON:518:1,2017-12-01T09:12:00Z,29.5150,-94.5133,0.0,3.7,28.0,4.2,'11111222,11111222,11111222' 
TCOON,ioos:station:TCOON:518:1,2017-12-01T09:18:00Z,29.5150,-94.5133,0.0,3.7,28.0,4.2,'1111122,1111122,1111122' 
TCOON,ioos:station:TCOON:518:1,2017-12-01T09:24:00Z,29.5150,-94.5133,0.0,4.3,17.0,4.7,'11111222,11111222,11111222' 
TCOON,ioos:station:TCOON:518:1,2017-12-01T09:30:00Z,29.5150,-94.5133,0.0,4.2,17.0,4.9,'11111222,11111222,11111222' 
TCOON,ioos:station:TCOON:518:1,2017-12-01T09:36:00Z,29.5150,-94.5133,0.0,4.3,21.0,5.3,'11111222,11111222,11111222' 
TCOON,ioos:station:TCOON:518:1,2017-12-01T09:42:00Z,29.5150,-94.5133,0.0,4.1,21.0,4.8,'11111222,11111222,11111222' 
TCOON,ioos:station:TCOON:518:1,2017-12-01T09:48:00Z,29.5150,-94.5133,0.0,3.8,23.0,4.4,'11111222,11111222,11111222' 
TCOON,ioos:station:TCOON:518:1,2017-12-01T09:54:00Z,29.5150,-94.5133,0.0,3.4,28.0,4.3,'11111222,11111222,11111222' 
TCOON,ioos:station:TCOON:518:1,2017-12-01T10:00:00Z,29.5150,-94.5133,0.0,3.6,32.0,4.4,'11111222,11111222,11111222' 
TCOON,ioos:station:TCOON:518:1,2017-12-01T10:06:00Z,29.5150,-94.5133,0.0,3.6,33.0,4.2,'11111222,11111222,11111222' 
TCOON,ioos:station:TCOON:518:1,2017-12-01T10:12:00Z,29.5150,-94.5133,0.0,4.1,27.0,4.4,'11111222,11111222,11111222' 
TCOON,ioos:station:TCOON:518:1,2017-12-01T10:18:00Z,29.5150,-94.5133,0.0,4.1,27.0,4.4,'1111122,1111122,1111122' 
TCOON,ioos:station:TCOON:518:1,2017-12-01T10:24:00Z,29.5150,-94.5133,0.0,4.2,27.0,5.1,'11111222,11111222,11111222' 
TCOON,ioos:station:TCOON:518:1,2017-12-01T10:30:00Z,29.5150,-94.5133,0.0,4.1,23.0,4.8,'11111222,11111222,11111222' 
TCOON,ioos:station:TCOON:518:1,2017-12-01T10:36:00Z,29.5150,-94.5133,0.0,4.3,23.0,5.1,'11111222,11111222,11111222' 
TCOON,ioos:station:TCOON:518:1,2017-12-01T10:42:00Z,29.5150,-94.5133,0.0,4.4,27.0,5.0,'11111222,11111222,11111222' 
TCOON,ioos:station:TCOON:518:1,2017-12-01T10:48:00Z,29.5150,-94.5133,0.0,4.3,27.0,5.1,'11111222,11111222,11111222' 
TCOON,ioos:station:TCOON:518:1,2017-12-01T10:54:00Z,29.5150,-94.5133,0.0,4.3,25.0,4.8,'11111222,11111222,11111222' 
TCOON,ioos:station:TCOON:518:1,2017-12-01T11:00:00Z,29.5150,-94.5133,0.0,4.6,26.0,5.6,'11111222,11111222,11111222' 
TCOON,ioos:station:TCOON:518:1,2017-12-01T11:06:00Z,29.5150,-94.5133,0.0,4.9,30.0,5.9,'11111222,11111222,11111222' 
TCOON,ioos:station:TCOON:518:1,2017-12-01T11:12:00Z,29.5150,-94.5133,0.0,4.4,32.0,5.4,'11111222,11111222,11111222' 
TCOON,ioos:station:TCOON:518:1,2017-12-01T11:18:00Z,29.5150,-94.5133,0.0,4.4,32.0,5.4,'1111122,1111122,1111122' 
TCOON,ioos:station:TCOON:518:1,2017-12-01T11:24:00Z,29.5150,-94.5133,0.0,4.4,35.0,5.5,'11111222,11111222,11111222' 
TCOON,ioos:station:TCOON:518:1,2017-12-01T11:30:00Z,29.5150,-94.5133,0.0,4.8,37.0,5.5,'11111222,11111222,11111222' 
TCOON,ioos:station:TCOON:518:1,2017-12-01T11:36:00Z,29.5150,-94.5133,0.0,4.8,35.0,5.6,'11111222,11111222,11111222' 
TCOON,ioos:station:TCOON:518:1,2017-12-01T11:42:00Z,29.5150,-94.5133,0.0,4.8,33.0,5.8,'11111222,11111222,11111222' 
TCOON,ioos:station:TCOON:518:1,2017-12-01T11:48:00Z,29.5150,-94.5133,0.0,4.4,40.0,5.6,'11111222,11111222,11111222' 
TCOON,ioos:station:TCOON:518:1,2017-12-01T11:54:00Z,29.5150,-94.5133,0.0,4.4,36.0,5.0,'11111222,11111222,11111222' 
TCOON,ioos:station:TCOON:518:1,2017-12-01T12:00:00Z,29.5150,-94.5133,0.0,4.1,37.0,5.0,'11111222,11111222,11111222' 
TCOON,ioos:station:TCOON:518:1,2017-12-01T12:06:00Z,29.5150,-94.5133,0.0,4.7,35.0,5.5,'11111222,11111222,11111222' 
TCOON,ioos:station:TCOON:518:1,2017-12-01T12:12:00Z,29.5150,-94.5133,0.0,4.4,37.0,5.3,'11111222,11111222,11111222' 
TCOON,ioos:station:TCOON:518:1,2017-12-01T12:18:00Z,29.5150,-94.5133,0.0,4.4,37.0,5.3,'1111122,1111122,1111122' 
TCOON,ioos:station:TCOON:518:1,2017-12-01T12:24:00Z,29.5150,-94.5133,0.0,4.0,38.0,4.9,'11111222,11111222,11111222' 
TCOON,ioos:station:TCOON:518:1,2017-12-01T12:30:00Z,29.5150,-94.5133,0.0,3.8,41.0,4.8,'11111222,11111222,11111222' 
TCOON,ioos:station:TCOON:518:1,2017-12-01T12:36:00Z,29.5150,-94.5133,0.0,4.1,44.0,4.8,'11111222,11111222,11111222' 
TCOON,ioos:station:TCOON:518:1,2017-12-01T12:42:00Z,29.5150,-94.5133,0.0,3.8,44.0,4.5,'11111222,11111222,11111222' 
TCOON,ioos:station:TCOON:518:1,2017-12-01T12:48:00Z,29.5150,-94.5133,0.0,3.9,43.0,4.6,'11111222,11111222,11111222' 
TCOON,ioos:station:TCOON:518:1,2017-12-01T12:54:00Z,29.5150,-94.5133,0.0,3.7,39.0,4.3,'11111222,11111222,11111222' 
TCOON,ioos:station:TCOON:518:1,2017-12-01T13:00:00Z,29.5150,-94.5133,0.0,3.9,34.0,4.7,'11111222,11111222,11111222' 
TCOON,ioos:station:TCOON:518:1,2017-12-01T13:06:00Z,29.5150,-94.5133,0.0,3.7,37.0,4.5,'11111222,11111222,11111222' 
TCOON,ioos:station:TCOON:518:1,2017-12-01T13:12:00Z,29.5150,-94.5133,0.0,3.3,34.0,4.0,'11111222,11111222,11111222' 
TCOON,ioos:station:TCOON:518:1,2017-12-01T13:18:00Z,29.5150,-94.5133,0.0,3.3,34.0,4.0,'1111122,1111122,1111122' 
TCOON,ioos:station:TCOON:518:1,2017-12-01T13:24:00Z,29.5150,-94.5133,0.0,4.0,32.0,4.4,'11111222,11111222,11111222' 
TCOON,ioos:station:TCOON:518:1,2017-12-01T13:30:00Z,29.5150,-94.5133,0.0,3.7,26.0,4.6,'11111222,11111222,11111222' 
TCOON,ioos:station:TCOON:518:1,2017-12-01T13:36:00Z,29.5150,-94.5133,0.0,3.6,27.0,4.3,'11111222,11111222,11111222' 
TCOON,ioos:station:TCOON:518:1,2017-12-01T13:42:00Z,29.5150,-94.5133,0.0,3.9,27.0,4.3,'11111222,11111222,11111222' 
TCOON,ioos:station:TCOON:518:1,2017-12-01T13:48:00Z,29.5150,-94.5133,0.0,4.1,26.0,4.6,'11111222,11111222,11111222' 
TCOON,ioos:station:TCOON:518:1,2017-12-01T13:54:00Z,29.5150,-94.5133,0.0,4.1,26.0,4.8,'11111222,11111222,11111222' 
TCOON,ioos:station:TCOON:518:1,2017-12-01T14:00:00Z,29.5150,-94.5133,0.0,3.8,30.0,4.5,'11111222,11111222,11111222' 
TCOON,ioos:station:TCOON:518:1,2017-12-01T14:06:00Z,29.5150,-94.5133,0.0,3.9,33.0,4.6,'11111222,11111222,11111222' 
TCOON,ioos:station:TCOON:518:1,2017-12-01T14:12:00Z,29.5150,-94.5133,0.0,3.9,35.0,4.7,'11111222,11111222,11111222' 
TCOON,ioos:station:TCOON:518:1,2017-12-01T14:18:00Z,29.5150,-94.5133,0.0,3.9,35.0,4.7,'1111122,1111122,1111122' 
TCOON,ioos:station:TCOON:518:1,2017-12-01T14:24:00Z,29.5150,-94.5133,0.0,3.9,35.0,4.5,'11111222,11111222,11111222' 
TCOON,ioos:station:TCOON:518:1,2017-12-01T14:30:00Z,29.5150,-94.5133,0.0,3.9,37.0,4.5,'11111222,11111222,11111222' 
TCOON,ioos:station:TCOON:518:1,2017-12-01T14:36:00Z,29.5150,-94.5133,0.0,3.9,35.0,4.6,'11111222,11111222,11111222' 
TCOON,ioos:station:TCOON:518:1,2017-12-01T14:42:00Z,29.5150,-94.5133,0.0,4.0,35.0,4.6,'11111222,11111222,11111222' 
TCOON,ioos:station:TCOON:518:1,2017-12-01T14:48:00Z,29.5150,-94.5133,0.0,3.8,36.0,4.4,'11111222,11111222,11111222' 
TCOON,ioos:station:TCOON:518:1,2017-12-01T14:54:00Z,29.5150,-94.5133,0.0,3.5,43.0,3.9,'11111222,11111222,11111222' 
TCOON,ioos:station:TCOON:518:1,2017-12-01T15:00:00Z,29.5150,-94.5133,0.0,3.3,42.0,3.9,'11111222,11111222,11111222' 
TCOON,ioos:station:TCOON:518:1,2017-12-01T15:06:00Z,29.5150,-94.5133,0.0,3.1,40.0,3.6,'11111222,11111222,11111222' 
TCOON,ioos:station:TCOON:518:1,2017-12-01T15:12:00Z,29.5150,-94.5133,0.0,3.1,44.0,3.6,'11111222,11111222,11111222' 
TCOON,ioos:station:TCOON:518:1,2017-12-01T15:18:00Z,29.5150,-94.5133,0.0,3.1,44.0,3.6,'1111122,1111122,1111122' 
TCOON,ioos:station:TCOON:518:1,2017-12-01T15:24:00Z,29.5150,-94.5133,0.0,3.4,40.0,3.8,'11111222,11111222,11111222' 
TCOON,ioos:station:TCOON:518:1,2017-12-01T15:30:00Z,29.5150,-94.5133,0.0,3.3,36.0,3.6,'11111222,11111222,11111222' 
TCOON,ioos:station:TCOON:518:1,2017-12-01T15:36:00Z,29.5150,-94.5133,0.0,2.9,39.0,3.2,'11111222,11111222,11111222' 
TCOON,ioos:station:TCOON:518:1,2017-12-01T15:42:00Z,29.5150,-94.5133,0.0,2.8,49.0,3.3,'11111222,11111222,11111222' 
TCOON,ioos:station:TCOON:518:1,2017-12-01T15:48:00Z,29.5150,-94.5133,0.0,2.8,42.0,3.2,'11111222,11111222,11111222' 
TCOON,ioos:station:TCOON:518:1,2017-12-01T15:54:00Z,29.5150,-94.5133,0.0,3.0,33.0,3.4,'11111222,11111222,11111222' 
TCOON,ioos:station:TCOON:518:1,2017-12-01T16:00:00Z,29.5150,-94.5133,0.0,3.1,32.0,3.6,'11111222,11111222,11111222' 
TCOON,ioos:station:TCOON:518:1,2017-12-01T16:06:00Z,29.5150,-94.5133,0.0,2.9,37.0,3.6,'11111222,11111222,11111222' 
TCOON,ioos:station:TCOON:518:1,2017-12-01T16:12:00Z,29.5150,-94.5133,0.0,2.8,40.0,3.4,'11111222,11111222,11111222' 
TCOON,ioos:station:TCOON:518:1,2017-12-01T16:18:00Z,29.5150,-94.5133,0.0,2.8,40.0,3.4,'1111122,1111122,1111122' 
TCOON,ioos:station:TCOON:518:1,2017-12-01T16:24:00Z,29.5150,-94.5133,0.0,2.9,33.0,3.3,'11111222,11111222,11111222' 
TCOON,ioos:station:TCOON:518:1,2017-12-01T16:30:00Z,29.5150,-94.5133,0.0,2.8,26.0,3.4,'11111222,11111222,11111222' 
TCOON,ioos:station:TCOON:518:1,2017-12-01T16:36:00Z,29.5150,-94.5133,0.0,2.3,31.0,3.0,'11111222,11111222,11111222' 
TCOON,ioos:station:TCOON:518:1,2017-12-01T16:42:00Z,29.5150,-94.5133,0.0,2.3,26.0,2.7,'11111222,11111222,11111222' 
TCOON,ioos:station:TCOON:518:1,2017-12-01T16:48:00Z,29.5150,-94.5133,0.0,1.8,93.0,3.1,'11111222,11111222,11111222' 
TCOON,ioos:station:TCOON:518:1,2017-12-01T16:54:00Z,29.5150,-94.5133,0.0,1.5,55.0,2.7,'11111222,11111222,11111222' 
TCOON,ioos:station:TCOON:518:1,2017-12-01T17:00:00Z,29.5150,-94.5133,0.0,3.2,111.0,3.8,'11111222,11111222,11111222' 
TCOON,ioos:station:TCOON:518:1,2017-12-01T17:06:00Z,29.5150,-94.5133,0.0,3.5,112.0,3.9,'11111222,11111222,11111222' 
TCOON,ioos:station:TCOON:518:1,2017-12-01T17:12:00Z,29.5150,-94.5133,0.0,3.2,106.0,3.7,'11111222,11111222,11111222' 
TCOON,ioos:station:TCOON:518:1,2017-12-01T17:18:00Z,29.5150,-94.5133,0.0,3.2,106.0,3.7,'1111122,1111122,1111122' 
TCOON,ioos:station:TCOON:518:1,2017-12-01T17:24:00Z,29.5150,-94.5133,0.0,3.4,114.0,4.3,'11111222,11111222,11111222' 
TCOON,ioos:station:TCOON:518:1,2017-12-01T17:30:00Z,29.5150,-94.5133,0.0,2.5,102.0,3.2,'11111222,11111222,11111222' 
TCOON,ioos:station:TCOON:518:1,2017-12-01T17:36:00Z,29.5150,-94.5133,0.0,2.5,109.0,3.1,'11111222,11111222,11111222' 
TCOON,ioos:station:TCOON:518:1,2017-12-01T17:42:00Z,29.5150,-94.5133,0.0,2.9,122.0,3.4,'11111222,11111222,11111222' 
TCOON,ioos:station:TCOON:518:1,2017-12-01T17:48:00Z,29.5150,-94.5133,0.0,3.6,116.0,4.2,'11111222,11111222,11111222' 
TCOON,ioos:station:TCOON:518:1,2017-12-01T17:54:00Z,29.5150,-94.5133,0.0,4.0,131.0,4.4,'11111222,11111222,11111222' 
TCOON,ioos:station:TCOON:518:1,2017-12-01T18:00:00Z,29.5150,-94.5133,0.0,3.7,129.0,4.4,'11111222,11111222,11111222' 
TCOON,ioos:station:TCOON:518:1,2017-12-01T18:06:00Z,29.5150,-94.5133,0.0,3.8,134.0,4.3,'11111222,11111222,11111222' 
TCOON,ioos:station:TCOON:518:1,2017-12-01T18:12:00Z,29.5150,-94.5133,0.0,3.8,134.0,4.3,'11111222,11111222,11111222' 
TCOON,ioos:station:TCOON:518:1,2017-12-01T18:18:00Z,29.5150,-94.5133,0.0,3.8,134.0,4.3,'1111122,1111122,1111122' 
TCOON,ioos:station:TCOON:518:1,2017-12-01T18:24:00Z,29.5150,-94.5133,0.0,3.7,128.0,4.5,'11111222,11111222,11111222' 
TCOON,ioos:station:TCOON:518:1,2017-12-01T18:30:00Z,29.5150,-94.5133,0.0,3.4,127.0,4.0,'11111222,11111222,11111222' 
TCOON,ioos:station:TCOON:518:1,2017-12-01T18:36:00Z,29.5150,-94.5133,0.0,3.0,127.0,3.7,'11111222,11111222,11111222' 
TCOON,ioos:station:TCOON:518:1,2017-12-01T18:42:00Z,29.5150,-94.5133,0.0,3.3,135.0,4.6,'11111222,11111222,11111222' 
TCOON,ioos:station:TCOON:518:1,2017-12-01T19:06:00Z,29.5150,-94.5133,0.0,2.5,123.0,2.8,'11111222,11111222,11111222' 
TCOON,ioos:station:TCOON:518:1,2017-12-01T19:12:00Z,29.5150,-94.5133,0.0,3.0,123.0,3.3,'11111222,11111222,11111222' 
TCOON,ioos:station:TCOON:518:1,2017-12-01T19:18:00Z,29.5150,-94.5133,0.0,3.0,123.0,3.3,'1111122,1111122,1111122' 
TCOON,ioos:station:TCOON:518:1,2017-12-01T19:24:00Z,29.5150,-94.5133,0.0,3.3,129.0,3.7,'11111222,11111222,11111222' 
TCOON,ioos:station:TCOON:518:1,2017-12-01T19:30:00Z,29.5150,-94.5133,0.0,2.4,128.0,3.5,'11111222,11111222,11111222' 
TCOON,ioos:station:TCOON:518:1,2017-12-01T19:36:00Z,29.5150,-94.5133,0.0,2.5,126.0,2.9,'11111222,11111222,11111222' 
TCOON,ioos:station:TCOON:518:1,2017-12-01T19:42:00Z,29.5150,-94.5133,0.0,2.7,133.0,3.2,'11111222,11111222,11111222' 
TCOON,ioos:station:TCOON:518:1,2017-12-01T19:48:00Z,29.5150,-94.5133,0.0,2.3,134.0,3.5,'11111222,11111222,11111222' 
TCOON,ioos:station:TCOON:518:1,2017-12-01T19:54:00Z,29.5150,-94.5133,0.0,2.3,137.0,2.8,'11111222,11111222,11111222' 
TCOON,ioos:station:TCOON:518:1,2017-12-01T20:00:00Z,29.5150,-94.5133,0.0,2.6,126.0,3.1,'11111222,11111222,11111222' 
TCOON,ioos:station:TCOON:518:1,2017-12-01T20:06:00Z,29.5150,-94.5133,0.0,2.6,134.0,3.4,'11111222,11111222,11111222' 
TCOON,ioos:station:TCOON:518:1,2017-12-01T20:12:00Z,29.5150,-94.5133,0.0,2.9,137.0,3.4,'11111222,11111222,11111222' 
TCOON,ioos:station:TCOON:518:1,2017-12-01T20:18:00Z,29.5150,-94.5133,0.0,2.9,137.0,3.4,'1111122,1111122,1111122' 
TCOON,ioos:station:TCOON:518:1,2017-12-01T20:24:00Z,29.5150,-94.5133,0.0,2.7,139.0,3.7,'11111222,11111222,11111222' 
TCOON,ioos:station:TCOON:518:1,2017-12-01T20:30:00Z,29.5150,-94.5133,0.0,2.9,149.0,3.6,'11111222,11111222,11111222' 
TCOON,ioos:station:TCOON:518:1,2017-12-01T20:36:00Z,29.5150,-94.5133,0.0,3.4,159.0,4.3,'11111222,11111222,11111222' 
TCOON,ioos:station:TCOON:518:1,2017-12-01T20:42:00Z,29.5150,-94.5133,0.0,3.7,159.0,5.1,'11111222,11111222,11111222' 
TCOON,ioos:station:TCOON:518:1,2017-12-01T20:48:00Z,29.5150,-94.5133,0.0,4.0,159.0,4.5,'11111222,11111222,11111222' 